Weather History for Sheldon, IA

Change the Weather History Date:

Sunday, December 9, 2012

  Actual Average Record
Temperature  
Mean Temperature 22 °F -  
Max Temperature 33 °F 30 °F 57 °F (1957)
Min Temperature 12 °F 12 °F -23 °F (1958)
Degree Days  
Heating Degree Days 42    
Moisture  
Dew Point 21 °F    
Average Humidity 91    
Maximum Humidity 100    
Minimum Humidity 67    
Precipitation  
Precipitation 0.00 in - - ()
Sea Level Pressure  
Sea Level Pressure 29.87 in    
Wind  
Wind Speed 19 mph (West)    
Max Wind Speed 30 mph    
Max Gust Speed 39 mph    
Visibility 6 miles    
Events Rain , Snow    
Averages and records for this station are not official NWS values.
T = Trace of Precipitation, MM = Missing Value Source: NWS Daily Summary

Daily Weather History Graph

Daily Weather History Graph

Search for Another Location

Airport:

Trip Planner

Search our weather history database for the weather conditions in past years. The results will help you decide how hot, cold, wet, or windy it might be!

Date:

Astronomy

Dec. 09, 2012 Rise Set
Actual Time 7:43 AM CST 4:47 PM CST
Civil Twilight 7:11 AM CST 5:20 PM CST
Nautical Twilight 6:35 AM CST 5:56 PM CST
Astronomical Twilight 6:01 AM CST 6:30 PM CST
Moon 3:12 AM CST (12/9) 1:59 PM CST (12/9)
Length of Visible Light 10h 08m
Length of Day
9h 03m
Waning Crescent, 18% of the Moon is Illuminated
Dec 9
Waning Crescent
Dec 13
New
Dec 19
First Quarter
Dec 28
Full
Jan 4
Last Quarter

Hourly Weather History & Observations

Time (CST) Temp. Windchill Dew Point Humidity Pressure Visibility Wind Dir Wind Speed Gust Speed Precip Events Conditions
12:15 AM 33.8 °F 21.9 °F 33.8 °F 100% 29.82 in 5.0 mi SSE 21.9 mph - N/A   Overcast
12:35 AM 33.8 °F 23.5 °F 33.8 °F 100% 29.84 in 5.0 mi SSE 16.1 mph 23.0 mph N/A   Overcast
12:55 AM 33.8 °F 23.2 °F 33.8 °F 100% 29.83 in 5.0 mi SSE 17.3 mph - N/A   Overcast
1:15 AM 33.8 °F 23.2 °F 33.8 °F 100% 29.83 in 5.0 mi SSE 17.3 mph - N/A   Overcast
1:35 AM 33.8 °F 22.5 °F 33.8 °F 100% 29.82 in 5.0 mi SSE 19.6 mph - N/A   Overcast
1:55 AM 33.8 °F 22.5 °F 33.8 °F 100% 29.81 in 5.0 mi SSE 19.6 mph 27.6 mph N/A   Overcast
2:15 AM 33.8 °F 22.5 °F 33.8 °F 100% 29.82 in 4.0 mi SSE 19.6 mph 26.5 mph N/A   Overcast
2:35 AM 33.8 °F 23.2 °F 33.8 °F 100% 29.82 in 4.0 mi SSE 17.3 mph 23.0 mph N/A   Overcast
2:55 AM 33.8 °F 22.8 °F 33.8 °F 100% 29.80 in 1.5 mi SE 18.4 mph - N/A Snow Light Snow
3:15 AM 33.8 °F 22.2 °F 33.8 °F 100% 29.80 in 2.5 mi SSE 20.7 mph - N/A Rain Light Rain
3:35 AM 33.8 °F 22.5 °F 33.8 °F 100% 29.77 in 2.0 mi SE 19.6 mph - N/A Rain Light Rain
3:55 AM 33.8 °F 23.2 °F 33.8 °F 100% 29.79 in 3.0 mi SSE 17.3 mph - N/A   Overcast
4:15 AM 33.8 °F 23.9 °F 33.8 °F 100% 29.78 in 4.0 mi South 15.0 mph - N/A   Overcast
4:35 AM 33.8 °F 22.8 °F 33.8 °F 100% 29.77 in 4.0 mi SSE 18.4 mph - N/A   Overcast
4:55 AM 33.8 °F 24.3 °F 33.8 °F 100% 29.77 in 3.0 mi SSE 13.8 mph - N/A   Overcast
5:15 AM 33.8 °F 24.3 °F 33.8 °F 100% 29.78 in 3.0 mi South 13.8 mph - N/A   Overcast
5:35 AM 33.8 °F 25.8 °F 33.8 °F 100% 29.78 in 3.0 mi South 10.4 mph 16.1 mph N/A   Overcast
5:55 AM 33.8 °F 24.3 °F 33.8 °F 100% 29.78 in 3.0 mi South 13.8 mph - N/A   Overcast
6:15 AM 33.8 °F 25.3 °F 33.8 °F 100% 29.77 in 3.0 mi South 11.5 mph - N/A   Overcast
6:35 AM 33.8 °F 24.3 °F 33.8 °F 100% 29.78 in 3.0 mi SSW 13.8 mph - N/A   Overcast
6:55 AM 33.8 °F 24.3 °F 33.8 °F 100% 29.78 in 3.0 mi WSW 13.8 mph - N/A   Overcast
7:15 AM 32.0 °F 22.5 °F 32.0 °F 100% 29.79 in 7.0 mi WSW 12.7 mph - N/A   Overcast
7:35 AM 32.0 °F 23.0 °F 32.0 °F 100% 29.78 in 4.0 mi WSW 11.5 mph - N/A Rain Light Rain
7:55 AM 32.0 °F 21.6 °F 32.0 °F 100% 29.80 in 4.0 mi WSW 15.0 mph 21.9 mph N/A Rain Light Rain
8:15 AM 30.2 °F 18.1 °F 30.2 °F 100% 29.81 in 8.0 mi WSW 18.4 mph - N/A   Overcast
8:35 AM 28.4 °F 16.6 °F 26.6 °F 93% 29.81 in 9.0 mi WSW 16.1 mph 21.9 mph N/A   Overcast
8:55 AM 26.6 °F 15.7 °F 26.6 °F 100% 29.81 in 10.0 mi SW 12.7 mph 24.2 mph N/A   Overcast
9:15 AM 26.6 °F 13.8 °F 26.6 °F 100% 29.81 in 10.0 mi SW 17.3 mph 23.0 mph N/A   Overcast
9:35 AM 26.6 °F 14.3 °F 24.8 °F 93% 29.81 in 9.0 mi SW 16.1 mph - N/A   Overcast
9:55 AM 24.8 °F 11.5 °F 24.8 °F 100% 29.82 in 9.0 mi WSW 17.3 mph 25.3 mph N/A   Overcast
10:15 AM 23.0 °F 8.3 °F 23.0 °F 100% 29.82 in 8.0 mi WSW 19.6 mph - N/A   Overcast
10:35 AM 23.0 °F 9.2 °F 23.0 °F 100% 29.82 in 9.0 mi SW 17.3 mph - N/A   Overcast
10:55 AM 23.0 °F 8.7 °F 21.2 °F 93% 29.82 in 9.0 mi SW 18.4 mph 24.2 mph N/A   Overcast
11:15 AM 23.0 °F 9.6 °F 19.4 °F 86% 29.81 in 9.0 mi SW 16.1 mph - N/A   Overcast
11:35 AM 23.0 °F 9.6 °F 19.4 °F 86% 29.79 in 10.0 mi SW 16.1 mph 23.0 mph N/A   Overcast
12:15 PM 23.0 °F 11.7 °F 21.2 °F 93% 29.77 in 10.0 mi WSW 11.5 mph - N/A   Overcast
12:35 PM 24.8 °F 14.0 °F 24.8 °F 100% 29.77 in 9.0 mi WNW 11.5 mph - N/A   Overcast
12:55 PM 24.8 °F 14.6 °F 24.8 °F 100% 29.77 in 8.0 mi WNW 10.4 mph 19.6 mph N/A   Overcast
1:15 PM 26.6 °F 13.4 °F 26.6 °F 100% 29.77 in 8.0 mi WNW 18.4 mph - N/A   Overcast
1:35 PM 26.6 °F 12.4 °F 23.0 °F 86% 29.78 in 9.0 mi NW 21.9 mph 32.2 mph N/A   Overcast
1:55 PM 23.0 °F 6.9 °F 21.2 °F 93% 29.80 in 10.0 mi NW 24.2 mph 32.2 mph N/A   Overcast
2:15 PM 23.0 °F 6.6 °F 19.4 °F 86% 29.82 in 10.0 mi NNW 25.3 mph - N/A   Overcast
2:35 PM 23.0 °F 6.6 °F 19.4 °F 86% 29.83 in 10.0 mi NW 25.3 mph 34.5 mph N/A   Overcast
2:55 PM 21.2 °F 4.5 °F 19.4 °F 93% 29.84 in 8.0 mi NW 24.2 mph 31.1 mph N/A Rain Light Freezing Rain
3:15 PM 21.2 °F 5.2 °F 17.6 °F 86% 29.85 in 5.0 mi NW 21.9 mph 31.1 mph N/A Snow Light Snow
3:35 PM 19.4 °F 1.4 °F 15.8 °F 86% 29.87 in 2.5 mi NW 26.5 mph 33.4 mph N/A Snow Light Snow
3:55 PM 19.4 °F 2.8 °F 15.8 °F 86% 29.89 in 1.8 mi NNW 21.9 mph 33.4 mph N/A Snow Light Snow
4:15 PM 17.6 °F -1.0 °F 15.8 °F 93% 29.90 in 2.0 mi NNW 26.5 mph 32.2 mph N/A Snow Light Snow
4:35 PM 17.6 °F -1.6 °F 14.0 °F 86% 29.91 in 2.0 mi NW 28.8 mph 35.7 mph N/A Snow Light Snow
4:55 PM 15.8 °F -4.4 °F 12.2 °F 86% 29.91 in 1.8 mi NNW 29.9 mph 35.7 mph N/A Snow Light Snow
5:15 PM 15.8 °F -3.7 °F 12.2 °F 86% 29.93 in 3.0 mi NNW 27.6 mph 36.8 mph N/A Snow Light Snow
5:35 PM 14.0 °F -6.2 °F 10.4 °F 86% 29.95 in 3.0 mi NNW 27.6 mph 36.8 mph N/A Snow Light Snow
5:55 PM 14.0 °F -5.5 °F 8.6 °F 79% 29.96 in 5.0 mi NNW 25.3 mph 36.8 mph N/A Snow Light Snow
6:15 PM 14.0 °F -6.8 °F 10.4 °F 86% 29.97 in 3.0 mi NNW 29.9 mph 36.8 mph N/A   Light Freezing Rain
6:35 PM 14.0 °F -5.8 °F 8.6 °F 79% 29.97 in 5.0 mi NNW 26.5 mph 39.1 mph N/A Snow Light Snow
6:55 PM 12.2 °F -9.3 °F 8.6 °F 85% 29.98 in 9.0 mi NNW 29.9 mph 35.7 mph N/A   Light Freezing Rain
7:15 PM 12.2 °F -8.2 °F 6.8 °F 79% 29.99 in 6.0 mi NNW 26.5 mph 34.5 mph N/A Snow Light Snow
7:35 PM 12.2 °F -7.1 °F 8.6 °F 85% 30.00 in 7.0 mi NNW 23.0 mph 34.5 mph N/A Snow Light Snow
7:55 PM 12.2 °F -7.5 °F 6.8 °F 79% 30.01 in 9.0 mi NNW 24.2 mph 32.2 mph N/A   Light Freezing Rain
8:15 PM 12.2 °F -5.8 °F 6.8 °F 79% 30.02 in 10.0 mi NW 19.6 mph 32.2 mph N/A   Light Freezing Rain
8:35 PM 12.2 °F -6.7 °F 8.6 °F 85% 30.01 in 9.0 mi NNW 21.9 mph 28.8 mph N/A   Light Freezing Rain
8:55 PM 14.0 °F -5.1 °F 8.6 °F 79% 30.02 in 9.0 mi NNW 24.2 mph - N/A Rain Light Freezing Rain
9:15 PM 14.0 °F -5.5 °F 8.6 °F 79% 30.02 in 8.0 mi NNW 25.3 mph 33.4 mph N/A   Light Freezing Rain
9:35 PM 14.0 °F -4.3 °F 8.6 °F 79% 30.03 in 9.0 mi NNW 21.9 mph 31.1 mph N/A Rain Light Freezing Rain
9:55 PM 12.2 °F -6.3 °F 6.8 °F 79% 30.03 in 9.0 mi NNW 20.7 mph 27.6 mph N/A Rain Light Freezing Rain
10:15 PM 12.2 °F - 6.8 °F 79% 30.03 in 10.0 mi North - - N/A   Light Freezing Rain
10:35 PM 12.2 °F -7.5 °F 6.8 °F 79% 30.03 in 10.0 mi NNW 24.2 mph 32.2 mph N/A   Overcast
10:55 PM 12.2 °F -7.5 °F 5.0 °F 73% 30.04 in 10.0 mi NNW 24.2 mph 33.4 mph N/A   Overcast
11:15 PM 12.2 °F -6.7 °F 5.0 °F 73% 30.03 in 10.0 mi NNW 21.9 mph 32.2 mph N/A   Overcast
11:35 PM 12.2 °F -6.7 °F 3.2 °F 67% 30.03 in 10.0 mi NNW 21.9 mph 29.9 mph N/A   Overcast
11:55 PM 12.2 °F -4.8 °F 5.0 °F 73% 30.03 in 10.0 mi NW 17.3 mph 26.5 mph N/A   Overcast